| time (UTC) | temp F | wind direction | speed knots | gust knots | rain 1hr in | rain 24hr in | rain mn in | humidity % | barometer mb |
| 20260504215004 | 54 | 25 | 8.7 | 18.2 | 0.01 | 0.01 | 0.01 | 47 | 1001.0 |
| 20260504214503 | 55 | 25 | 8.7 | 15.6 | 0.01 | 0.01 | 0.01 | 46 | 1001.0 |
| 20260504214004 | 55 | 0 | 10.4 | 17.4 | 0.01 | 0.01 | 0.01 | 43 | 1001.0 |
| 20260504213003 | 55 | 76 | 4.3 | 8.7 | 0.01 | 0.01 | 0.01 | 46 | 1001.1 |
| 20260504212503 | 55 | 61 | 3.5 | 10.4 | 0.01 | 0.01 | 0.01 | 48 | 1001.0 |
| 20260504212004 | 55 | 114 | 7.8 | 12.2 | 0.01 | 0.01 | 0.01 | 50 | 1000.9 |
| 20260504211504 | 54 | 89 | 4.3 | 10.4 | 0.01 | 0.01 | 0.01 | 52 | 1001.0 |
| 20260504211004 | 53 | 130 | 1.7 | 6.1 | 0.01 | 0.01 | 0.01 | 52 | 1001.4 |
| 20260504210504 | 52 | 140 | 5.2 | 8.7 | 0.01 | 0.01 | 0.01 | 55 | 1001.4 |
| 20260504210004 | 52 | 120 | 4.3 | 6.1 | 0.01 | 0.01 | 0.01 | 58 | 1001.4 |
| 20260504205004 | 51 | 175 | 0.9 | 2.6 | 0.00 | 0.00 | 0.00 | 55 | 1001.2 |
| 20260504204503 | 51 | 186 | 1.7 | 7.8 | 0.00 | 0.00 | 0.00 | 52 | 1001.5 |
| 20260504204004 | 51 | 162 | 2.6 | 4.3 | 0.00 | 0.00 | 0.00 | 56 | 1001.7 |
| 20260504203504 | 51 | 199 | 4.3 | 5.2 | 0.00 | 0.00 | 0.00 | 54 | 1001.7 |
| 20260504203003 | 51 | 186 | 0.0 | 2.6 | 0.00 | 0.00 | 0.00 | 54 | 1001.7 |
| 20260504202504 | 51 | 186 | 1.7 | 2.6 | 0.00 | 0.00 | 0.00 | 54 | 1001.7 |
| 20260504202004 | 51 | 172 | 3.5 | 4.3 | 0.00 | 0.00 | 0.00 | 54 | 1001.7 |
| 20260504201504 | 51 | 177 | 1.7 | 5.2 | 0.00 | 0.00 | 0.00 | 59 | 1001.5 |
| 20260504201004 | 51 | 211 | 6.1 | 8.7 | 0.00 | 0.00 | 0.00 | 62 | 1001.6 |
| 20260504200504 | 50 | 132 | 2.6 | 4.3 | 0.00 | 0.00 | 0.00 | 63 | 1001.7 |
| 20260504200004 | 49 | 65 | 1.7 | 4.3 | 0.00 | 0.00 | 0.00 | 60 | 1001.7 |
| 20260504195503 | 48 | 207 | 0.9 | 2.6 | 0.00 | 0.00 | 0.00 | 60 | 1001.7 |
| 20260504195003 | 48 | 205 | 4.3 | 6.1 | 0.00 | 0.00 | 0.00 | 61 | 1001.9 |
| 20260504194003 | 49 | 207 | 5.2 | 7.8 | 0.00 | 0.00 | 0.00 | 59 | 1002.2 |
| 20260504193504 | 49 | 200 | 3.5 | 7.8 | 0.00 | 0.00 | 0.00 | 61 | 1002.1 |
| 20260504193004 | 49 | 215 | 2.6 | 2.6 | 0.00 | 0.00 | 0.00 | 60 | 1002.0 |
| 20260504192504 | 49 | 121 | 1.7 | 2.6 | 0.00 | 0.00 | 0.00 | 62 | 1002.0 |
| 20260504192004 | 50 | 121 | 1.7 | 2.6 | 0.00 | 0.00 | 0.00 | 56 | 1002.2 |
| 20260504191504 | 50 | 97 | 1.7 | 2.6 | 0.00 | 0.00 | 0.00 | 52 | 1002.1 |
| 20260504191003 | 51 | 75 | 2.6 | 4.3 | 0.00 | 0.00 | 0.00 | 52 | 1002.1 |
| 20260504190504 | 51 | 58 | 1.7 | 6.1 | 0.00 | 0.00 | 0.00 | 52 | 1002.1 |
| 20260504190003 | 51 | 103 | 4.3 | 7.8 | 0.00 | 0.00 | 0.00 | 50 | 1002.0 |
| 20260504185504 | 52 | 31 | 3.5 | 5.2 | 0.00 | 0.00 | 0.00 | 49 | 1002.1 |
| 20260504185004 | 52 | 67 | 3.5 | 6.1 | 0.00 | 0.00 | 0.00 | 49 | 1001.6 |
| 20260504184504 | 52 | 40 | 4.3 | 7.8 | 0.00 | 0.00 | 0.00 | 53 | 1001.6 |
| 20260504184004 | 51 | 30 | 4.3 | 7.0 | 0.00 | 0.00 | 0.00 | 57 | 1001.7 |
| 20260504183504 | 51 | 26 | 2.6 | 4.3 | 0.00 | 0.00 | 0.00 | 54 | 1001.9 |
| 20260504183004 | 51 | 325 | 3.5 | 8.7 | 0.00 | 0.00 | 0.00 | 48 | 1002.0 |
| 20260504182504 | 51 | 0 | 6.1 | 13.9 | 0.00 | 0.00 | 0.00 | 47 | 1002.2 |
| 20260504182003 | 52 | 352 | 10.4 | 24.3 | 0.00 | 0.00 | 0.00 | 45 | 1002.2 |
| 20260504181503 | 54 | 273 | 7.8 | 21.7 | 0.00 | 0.00 | 0.00 | 42 | 1002.0 |
| 20260504181004 | 55 | 286 | 7.8 | 13.9 | 0.00 | 0.00 | 0.00 | 39 | 1002.0 |
| 20260504180003 | 56 | 321 | 2.6 | 6.1 | 0.00 | 0.00 | 0.00 | 37 | 1001.7 |
| 20260504175504 | 55 | 290 | 0.0 | 5.2 | 0.00 | 0.00 | 0.00 | 36 | 1001.7 |
| 20260504174504 | 55 | 226 | 7.0 | 10.4 | 0.00 | 0.00 | 0.00 | 38 | 1001.9 |
| 20260504174003 | 54 | 277 | 0.9 | 2.6 | 0.00 | 0.00 | 0.00 | 38 | 1001.8 |
| 20260504173504 | 54 | 277 | 2.6 | 10.4 | 0.00 | 0.00 | 0.00 | 38 | 1002.0 |
| 20260504173004 | 54 | 259 | 7.0 | 12.2 | 0.00 | 0.00 | 0.00 | 41 | 1002.1 |
| 20260504172504 | 54 | 246 | 7.8 | 12.2 | 0.00 | 0.00 | 0.00 | 39 | 1002.0 |
| 20260504172003 | 54 | 233 | 8.7 | 13.9 | 0.00 | 0.00 | 0.00 | 38 | 1002.0 |
| 20260504171504 | 54 | 237 | 9.6 | 17.4 | 0.00 | 0.00 | 0.00 | 38 | 1002.0 |
| 20260504171003 | 55 | 238 | 6.1 | 13.0 | 0.00 | 0.00 | 0.00 | 37 | 1002.0 |
| 20260504170504 | 55 | 240 | 7.0 | 12.2 | 0.00 | 0.00 | 0.00 | 38 | 1002.1 |
| 20260504150504 | 53 | 234 | 5.2 | 11.3 | 0.00 | 0.00 | 0.00 | 34 | 1002.3 |
| 20260504140504 | 40 | 256 | 1.7 | 2.6 | 0.00 | 0.00 | 0.00 | 57 | 1002.4 |
| 20260504130504 | 30 | 256 | 4.3 | 4.3 | 0.00 | 0.00 | 0.00 | 62 | 1002.6 |
| 20260504110504 | 28 | 256 | 0.0 | 0.9 | 0.00 | 0.00 | 0.00 | 66 | 1002.5 |
| 20260504100504 | 29 | 256 | 0.0 | 0.0 | 0.00 | 0.00 | 0.00 | 62 | 1002.6 |
| 20260504082004 | 31 | 256 | 0.0 | 0.0 | 0.00 | 0.00 | 0.00 | 60 | 1003.7 |
| 20260504081503 | 31 | 256 | 0.0 | 1.7 | 0.00 | 0.00 | 0.00 | 60 | 1003.7 |
| 20260504081004 | 30 | 256 | 0.9 | 2.6 | 0.00 | 0.00 | 0.00 | 60 | 1003.8 |
| 20260504080504 | 30 | 256 | 0.9 | 1.7 | 0.00 | 0.00 | 0.00 | 60 | 1003.9 |
| 20260504050503 | 37 | 256 | 0.0 | 0.0 | 0.00 | 0.00 | 0.00 | 54 | 1004.5 |
| 20260504050004 | 37 | 256 | 0.0 | 0.0 | 0.00 | 0.00 | 0.00 | 55 | 1004.6 |
| 20260504045004 | 38 | 256 | 0.0 | 0.0 | 0.00 | 0.00 | 0.00 | 53 | 1004.6 |
| 20260504044504 | 38 | 256 | 0.0 | 0.0 | 0.00 | 0.00 | 0.00 | 53 | 1004.6 |
| 20260504043503 | 38 | 256 | 0.9 | 2.6 | 0.00 | 0.00 | 0.00 | 52 | 1004.7 |
| 20260504043004 | 39 | 256 | 2.6 | 2.6 | 0.00 | 0.00 | 0.00 | 52 | 1004.7 |
| 20260504042504 | 39 | 256 | 0.0 | 2.6 | 0.00 | 0.00 | 0.00 | 52 | 1004.7 |
| 20260504041504 | 39 | 256 | 0.9 | 4.3 | 0.00 | 0.00 | 0.00 | 51 | 1004.8 |
| 20260504041004 | 39 | 256 | 1.7 | 2.6 | 0.00 | 0.00 | 0.00 | 50 | 1004.9 |
| 20260504040503 | 40 | 256 | 0.9 | 2.6 | 0.00 | 0.00 | 0.00 | 51 | 1004.9 |
| 20260504040003 | 40 | 256 | 0.9 | 2.6 | 0.00 | 0.00 | 0.00 | 50 | 1005.0 |
| 20260504035003 | 41 | 256 | 0.0 | 2.6 | 0.00 | 0.00 | 0.00 | 49 | 1004.8 |
| 20260504034504 | 41 | 256 | 1.7 | 2.6 | 0.00 | 0.00 | 0.00 | 49 | 1004.8 |
| 20260504033504 | 42 | 256 | 2.6 | 4.3 | 0.00 | 0.00 | 0.00 | 47 | 1004.8 |
| 20260504033003 | 43 | 256 | 0.0 | 2.6 | 0.00 | 0.00 | 0.00 | 47 | 1004.7 |
| 20260504032503 | 43 | 256 | 0.0 | 0.0 | 0.00 | 0.00 | 0.00 | 46 | 1004.6 |
| 20260504031504 | 44 | 256 | 0.0 | 0.0 | 0.00 | 0.00 | 0.00 | 45 | 1004.6 |
| 20260504031003 | 44 | 256 | 0.0 | 0.0 | 0.00 | 0.00 | 0.00 | 45 | 1004.5 |
| 20260504030503 | 44 | 256 | 0.0 | 2.6 | 0.00 | 0.00 | 0.00 | 44 | 1004.5 |
| 20260504030004 | 45 | 256 | 1.7 | 2.6 | 0.00 | 0.00 | 0.00 | 43 | 1004.5 |
| 20260504025503 | 45 | 256 | 1.7 | 4.3 | 0.00 | 0.00 | 0.00 | 44 | 1004.4 |
| 20260504025005 | 46 | 256 | 0.0 | 0.0 | 0.00 | 0.00 | 0.00 | 43 | 1004.4 |
| 20260504024503 | 46 | 256 | 1.7 | 2.6 | 0.00 | 0.00 | 0.00 | 42 | 1004.3 |
| 20260504024003 | 47 | 256 | 0.9 | 2.6 | 0.00 | 0.00 | 0.00 | 41 | 1004.3 |
| 20260504023503 | 47 | 256 | 2.6 | 2.6 | 0.00 | 0.00 | 0.00 | 41 | 1004.2 |
| 20260504023004 | 48 | 256 | 1.7 | 2.6 | 0.00 | 0.00 | 0.00 | 39 | 1004.2 |
| 20260504022504 | 49 | 256 | 0.0 | 0.0 | 0.00 | 0.00 | 0.00 | 39 | 1004.1 |
| 20260504022003 | 49 | 256 | 0.0 | 1.7 | 0.00 | 0.00 | 0.00 | 38 | 1004.1 |
| 20260504021004 | 51 | 256 | 0.0 | 1.7 | 0.00 | 0.00 | 0.00 | 37 | 1004.0 |
| 20260504020004 | 52 | 256 | 0.0 | 0.0 | 0.00 | 0.00 | 0.00 | 34 | 1003.9 |
| 20260504015504 | 52 | 256 | 0.0 | 0.0 | 0.00 | 0.00 | 0.00 | 33 | 1003.8 |
| 20260504015004 | 53 | 256 | 0.0 | 0.0 | 0.00 | 0.00 | 0.00 | 32 | 1003.7 |
| 20260504014504 | 53 | 256 | 0.0 | 0.0 | 0.00 | 0.00 | 0.00 | 33 | 1003.3 |
| 20260504014004 | 54 | 256 | 0.0 | 0.0 | 0.00 | 0.00 | 0.00 | 31 | 1003.3 |
| 20260504013504 | 54 | 256 | 0.0 | 0.0 | 0.00 | 0.00 | 0.00 | 31 | 1003.2 |
| 20260504013004 | 54 | 256 | 0.0 | 0.0 | 0.00 | 0.00 | 0.00 | 31 | 1003.3 |
| 20260504012504 | 54 | 256 | 0.0 | 0.0 | 0.00 | 0.00 | 0.00 | 31 | 1003.3 |
| 20260504012004 | 55 | 256 | 0.0 | 2.6 | 0.00 | 0.00 | 0.00 | 31 | 1003.3 |
| 20260504011503 | 55 | 256 | 2.6 | 4.3 | 0.00 | 0.00 | 0.00 | 31 | 1003.4 |
| 20260504011003 | 55 | 256 | 2.6 | 4.3 | 0.00 | 0.00 | 0.00 | 31 | 1003.4 |
| 20260504010504 | 55 | 246 | 2.6 | 6.1 | 0.00 | 0.00 | 0.00 | 30 | 1003.4 |
| 20260504010004 | 55 | 237 | 4.3 | 7.8 | 0.00 | 0.00 | 0.00 | 30 | 1003.3 |
| 20260504005504 | 55 | 235 | 1.7 | 5.2 | 0.00 | 0.00 | 0.00 | 30 | 1003.4 |
| 20260504005004 | 55 | 255 | 6.1 | 13.0 | 0.00 | 0.00 | 0.00 | 30 | 1003.6 |
| 20260504004503 | 56 | 246 | 7.8 | 12.2 | 0.00 | 0.00 | 0.00 | 30 | 1003.5 |
| 20260504004004 | 56 | 263 | 3.5 | 13.9 | 0.00 | 0.00 | 0.00 | 30 | 1003.5 |
| 20260504003504 | 57 | 234 | 10.4 | 13.9 | 0.00 | 0.00 | 0.00 | 29 | 1003.5 |
| 20260504003004 | 57 | 261 | 11.3 | 18.2 | 0.00 | 0.00 | 0.00 | 29 | 1003.6 |
| 20260504002503 | 56 | 244 | 9.6 | 17.4 | 0.00 | 0.00 | 0.00 | 30 | 1003.5 |
| 20260504002004 | 56 | 249 | 10.4 | 17.4 | 0.00 | 0.00 | 0.00 | 30 | 1003.7 |
| 20260504001504 | 56 | 245 | 8.7 | 17.4 | 0.00 | 0.00 | 0.00 | 30 | 1003.9 |
| 20260504001004 | 56 | 246 | 9.6 | 14.8 | 0.00 | 0.00 | 0.00 | 30 | 1003.8 |
| 20260504000504 | 57 | 250 | 10.4 | 17.4 | 0.00 | 0.00 | 0.00 | 29 | 1003.8 |
| 20260504000004 | 57 | 237 | 8.7 | 17.4 | 0.00 | 0.00 | 0.00 | 29 | 1003.8 |
| 20260503235503 | 57 | 238 | 8.7 | 20.9 | 0.00 | 0.00 | 0.00 | 28 | 1003.9 |
| 20260503235003 | 58 | 243 | 10.4 | 17.4 | 0.00 | 0.00 | 0.00 | 26 | 1004.0 |
| 20260503234504 | 60 | 232 | 11.3 | 17.4 | 0.00 | 0.00 | 0.00 | 24 | 1003.8 |
| 20260503234004 | 61 | 273 | 4.3 | 13.9 | 0.00 | 0.00 | 0.00 | 20 | 1003.9 |
| 20260503233503 | 61 | 274 | 8.7 | 14.8 | 0.00 | 0.00 | 0.00 | 20 | 1003.8 |
| 20260503233004 | 60 | 272 | 7.8 | 17.4 | 0.00 | 0.00 | 0.00 | 21 | 1003.9 |
| 20260503232504 | 59 | 261 | 2.6 | 8.7 | 0.00 | 0.00 | 0.00 | 23 | 1003.8 |
| 20260503232004 | 59 | 297 | 2.6 | 7.0 | 0.00 | 0.00 | 0.00 | 24 | 1003.9 |
| 20260503231504 | 59 | 243 | 2.6 | 8.7 | 0.00 | 0.00 | 0.00 | 23 | 1003.5 |
| 20260503231004 | 59 | 28 | 1.7 | 12.2 | 0.00 | 0.00 | 0.00 | 23 | 1003.6 |
| 20260503230503 | 59 | 337 | 5.2 | 8.7 | 0.00 | 0.00 | 0.00 | 23 | 1003.8 |
| 20260503230004 | 60 | 148 | 2.6 | 7.8 | 0.00 | 0.00 | 0.00 | 22 | 1003.8 |
| 20260503225503 | 59 | 180 | 5.2 | 11.3 | 0.00 | 0.00 | 0.00 | 24 | 1004.0 |
| 20260503224504 | 57 | 245 | 7.8 | 15.6 | 0.00 | 0.00 | 0.00 | 26 | 1004.0 |
| 20260503224004 | 58 | 246 | 15.6 | 22.6 | 0.00 | 0.00 | 0.00 | 25 | 1004.1 |
| 20260503223504 | 58 | 255 | 9.6 | 13.0 | 0.00 | 0.00 | 0.00 | 25 | 1004.1 |
| 20260503223004 | 59 | 231 | 9.6 | 17.4 | 0.00 | 0.00 | 0.00 | 24 | 1003.9 |
| 20260503222504 | 60 | 233 | 11.3 | 18.2 | 0.00 | 0.00 | 0.00 | 23 | 1003.8 |
| 20260503221004 | 60 | 241 | 2.6 | 15.6 | 0.00 | 0.00 | 0.00 | 18 | 1004.2 |
| 20260503220004 | 62 | 242 | 7.0 | 10.4 | 0.00 | 0.00 | 0.00 | 17 | 1004.2 |
| 20260503215504 | 62 | 261 | 2.6 | 5.2 | 0.00 | 0.00 | 0.00 | 17 | 1004.2 |